HK6RM-18 Weather Reports


Display with metric or nautical units.
time (UTC)temp
F
wind
direction
speed
MPH
gust
MPH
rain 1hr
in
rain 24hr
in
rain mn
in
humidity
%
barometer
mb
20260507154450 73 290 6.0 0.0 0.00 0.00 0.00 82 1015.0
20260507152949 71 290 6.0 0.0 0.00 0.00 0.00 75 1016.0
20260507151448 71 290 6.0 0.0 0.00 0.00 0.00 73 1016.0
20260507145945 71 290 6.0 0.0 0.00 0.00 0.00 70 1016.0
20260507144445 71 290 6.0 0.0 0.00 0.00 0.00 70 1016.0
20260507142943 71 290 6.0 0.0 0.00 0.00 0.00 70 1016.0
20260507141440 71 290 6.0 0.0 0.00 0.00 0.00 69 1016.0
20260507135939 72 0 2.0 0.0 0.00 0.00 0.00 68 1016.0
20260507134437 73 0 2.0 0.0 0.00 0.00 0.00 69 1016.0
20260507132935 64 305 1.0 1.0 0.00 0.00 0.00 73 1016.0
20260507131434 65 305 1.0 1.0 0.00 0.00 0.00 73 1016.0
20260507125934 66 305 2.0 1.0 0.00 0.00 0.00 73 1016.0
20260507124433 59 90 4.0 0.0 0.00 0.00 0.00 82 1016.0
20260507122931 60 90 4.0 0.0 0.00 0.00 0.00 82 1016.0
20260507121431 61 90 4.0 0.0 0.00 0.00 0.00 82 1016.0
20260507115930 62 90 4.0 0.0 0.00 0.00 0.00 82 1016.0
20260507114430 62 90 4.0 0.0 0.00 0.00 0.00 82 1016.0
20260507112927 57 90 4.0 0.0 0.00 0.00 0.00 78 1016.0
20260507111427 58 90 4.0 0.0 0.00 0.00 0.00 78 1016.0
20260507105925 56 99 4.0 1.0 0.00 0.00 0.00 77 1016.0
20260507104424 57 99 4.0 2.0 0.00 0.00 0.00 77 1016.0
20260507102924 56 99 5.0 1.0 0.00 0.00 0.00 76 1016.0
20260507101422 57 99 5.0 2.0 0.00 0.00 0.00 76 1016.0
20260507095921 56 99 5.0 1.0 0.00 0.00 0.00 76 1016.0
20260507094419 57 99 5.0 2.0 0.00 0.00 0.00 76 1016.0
20260507092918 56 105 5.0 1.0 0.00 0.00 0.00 77 1016.0
20260507091417 57 105 5.0 1.0 0.00 0.00 0.00 78 1016.0
20260507085916 57 105 5.0 2.0 0.00 0.00 0.00 76 1016.0
20260507084415 56 103 5.0 1.0 0.00 0.00 0.00 77 1016.0
20260507082914 57 103 5.0 2.0 0.00 0.00 0.00 76 1016.0
20260507081414 56 103 5.0 1.0 0.00 0.00 0.00 78 1016.0
20260507075912 57 103 5.0 2.0 0.00 0.00 0.00 77 1016.0
20260507074411 56 101 5.0 1.0 0.00 0.00 0.00 77 1016.0
20260507072910 57 101 5.0 2.0 0.00 0.00 0.00 77 1016.0
20260507071409 56 100 4.0 0.0 0.00 0.00 0.00 77 1016.0
20260507065909 57 100 4.0 0.0 0.00 0.00 0.00 77 1016.0
20260507064407 58 100 4.0 0.0 0.00 0.00 0.00 77 1016.0
20260507062907 60 100 4.0 0.0 0.00 0.00 0.00 78 1017.0
20260507061406 57 100 5.0 0.0 0.00 0.00 0.00 78 1017.0
20260507055905 58 100 5.0 0.0 0.00 0.00 0.00 78 1017.0
20260507054405 59 100 5.0 0.0 0.00 0.00 0.00 79 1017.0
20260507052900 61 100 5.0 0.0 0.00 0.00 0.00 80 1017.0
20260507051400 57 102 5.0 1.0 0.00 0.00 0.00 75 1017.0
20260507045859 58 102 5.0 1.0 0.00 0.00 0.00 75 1017.0
20260507044356 59 102 5.0 2.0 0.00 0.00 0.00 75 1017.0
20260507042856 57 105 5.0 1.0 0.00 0.00 0.00 75 1017.0
20260507041355 58 105 5.0 2.0 0.00 0.00 0.00 75 1017.0
20260507035855 57 80 4.0 0.0 0.00 0.00 0.00 76 1017.0
20260507034354 58 80 4.0 0.0 0.00 0.00 0.00 76 1017.0
20260507032849 59 80 4.0 0.0 0.00 0.00 0.00 76 1017.0
20260507031348 60 80 4.0 0.0 0.00 0.00 0.00 76 1017.0
20260507025848 62 80 4.0 0.0 0.00 0.00 0.00 76 1017.0
20260507024347 64 80 4.0 0.0 0.00 0.00 0.00 77 1017.0
20260507022846 67 80 4.0 0.0 0.00 0.00 0.00 78 1016.0
20260507021344 69 80 4.0 0.0 0.00 0.00 0.00 81 1016.0
20260507015842 58 106 5.0 3.0 0.00 0.00 0.00 72 1016.0
20260507014340 59 106 6.0 3.0 0.00 0.00 0.00 72 1016.0
20260507012839 71 90 3.0 0.0 0.00 0.00 0.00 81 1015.0
20260507011339 71 90 3.0 0.0 0.00 0.00 0.00 81 1015.0
20260507005838 59 108 5.0 1.0 0.00 0.00 0.00 72 1015.0
20260507004337 60 108 6.0 2.0 0.00 0.00 0.00 72 1015.0
20260507002836 60 290 5.0 0.0 0.00 0.00 0.00 71 1014.0
20260507001334 61 290 5.0 0.0 0.00 0.00 0.00 71 1014.0
20260506235834 62 290 5.0 0.0 0.00 0.00 0.00 71 1014.0
20260506234333 63 290 5.0 0.0 0.00 0.00 0.00 71 1013.0
20260506232833 64 290 5.0 0.0 0.00 0.00 0.00 71 1012.0
20260506231329 65 290 5.0 0.0 0.00 0.00 0.00 71 1012.0
20260506225828 66 290 5.0 0.0 0.00 0.00 0.00 71 1012.0
20260506224328 67 290 5.0 0.0 0.00 0.00 0.00 71 1012.0
20260506222827 68 290 5.0 0.0 0.00 0.00 0.00 71 1011.0
20260506221326 69 290 5.0 0.0 0.00 0.00 0.00 70 1010.0
20260506215825 70 290 5.0 0.0 0.00 0.00 0.00 70 1010.0
20260506214324 72 290 5.0 0.0 0.00 0.00 0.00 70 1010.0
20260506212822 74 290 6.0 0.0 0.00 0.00 0.00 69 1010.0
20260506205701 72 280 8.0 0.0 0.00 0.00 0.00 69 1010.0
20260506204201 73 280 8.0 0.0 0.00 0.00 0.00 69 1010.0
20260506202659 74 280 8.0 0.0 0.00 0.00 0.00 69 1010.0
20260506201158 75 280 8.0 0.0 0.00 0.00 0.00 68 1010.0
20260506195655 76 280 8.0 0.0 0.00 0.00 0.00 68 1010.0
20260506194154 77 280 8.0 0.0 0.00 0.00 0.00 68 1010.0
20260506192653 75 280 8.0 0.0 0.00 0.00 0.00 68 1011.0
20260506191151 76 280 8.0 0.0 0.00 0.00 0.00 68 1010.0
20260506185650 77 320 8.0 0.0 0.00 0.00 0.00 68 1010.0
20260506184150 78 320 8.0 0.0 0.00 0.00 0.00 68 1011.0
20260506182649 79 320 8.0 0.0 0.00 0.00 0.00 68 1012.0
20260506181149 74 320 8.0 0.0 0.00 0.00 0.00 74 1012.0
20260506175648 74 290 8.0 0.0 0.00 0.00 0.00 76 1012.0
20260506174146 73 290 8.0 0.0 0.00 0.00 0.00 76 1012.0
20260506172646 74 290 8.0 0.0 0.00 0.00 0.00 76 1013.0
20260506171145 73 290 8.0 0.0 0.00 0.00 0.00 77 1013.0
20260506165645 74 300 8.0 0.0 0.00 0.00 0.00 77 1013.0
20260506164144 73 300 8.0 0.0 0.00 0.00 0.00 76 1013.0
20260506162644 74 300 8.0 0.0 0.00 0.00 0.00 76 1014.0
20260506161143 73 300 8.0 0.0 0.00 0.00 0.00 75 1014.0